TimeCST,TemperatureF,Dew PointF,Humidity,Sea Level PressureIn,VisibilityMPH,Wind Direction,Wind SpeedMPH,Gust SpeedMPH,PrecipitationIn,Events,Conditions,WindDirDegrees,DateUTC
12:56 AM,37.0,35.1,93,30.10,5.0,Calm,Calm,-,N/A,,Clear,0,2013-02-15 06:56:00
1:23 AM,35.6,35.6,100,30.10,5.0,Calm,Calm,-,0.00,Rain,Light Freezing Rain,0,2013-02-15 07:23:00
1:45 AM,35.6,33.8,93,30.10,2.5,Calm,Calm,-,0.00,,Clear,0,2013-02-15 07:45:00
1:56 AM,36.0,35.1,97,30.10,5.0,Calm,Calm,-,0.00,,Clear,0,2013-02-15 07:56:00
2:20 AM,35.6,35.6,100,30.09,1.8,Calm,Calm,-,0.00,Snow,Light Snow,0,2013-02-15 08:20:00
2:29 AM,35.6,33.8,93,30.09,3.0,Calm,Calm,-,0.00,Rain,Light Rain,0,2013-02-15 08:29:00
2:36 AM,35.6,33.8,93,30.09,4.0,Calm,Calm,-,0.00,Rain,Light Freezing Rain,0,2013-02-15 08:36:00
2:56 AM,36.0,35.1,97,30.10,3.0,Calm,Calm,-,0.00,Rain,Light Freezing Rain,0,2013-02-15 08:56:00
2:59 AM,35.6,35.6,100,30.09,2.5,Calm,Calm,-,0.00,,Clear,0,2013-02-15 08:59:00
3:06 AM,35.6,35.6,100,30.09,6.0,Calm,Calm,-,0.00,,Clear,0,2013-02-15 09:06:00
3:30 AM,35.6,35.6,100,30.09,1.8,NNW,3.5,-,0.00,Snow,Light Snow,330,2013-02-15 09:30:00
3:56 AM,35.1,34.0,96,30.10,2.5,Calm,Calm,-,0.00,Rain,Light Freezing Rain,0,2013-02-15 09:56:00
4:10 AM,35.6,33.8,93,30.10,0.8,NNW,3.5,-,0.00,Rain,Light Freezing Rain,330,2013-02-15 10:10:00
4:17 AM,35.6,33.8,93,30.10,1.2,NNW,3.5,-,0.00,,Clear,340,2013-02-15 10:17:00
4:25 AM,35.6,33.8,93,30.10,3.0,NNW,4.6,-,0.00,,Clear,330,2013-02-15 10:25:00
4:56 AM,37.9,37.9,100,30.12,10.0,NNW,4.6,-,0.00,,Clear,340,2013-02-15 10:56:00
5:56 AM,37.9,37.0,97,30.12,10.0,North,3.5,-,N/A,,Clear,350,2013-02-15 11:56:00
6:56 AM,39.0,37.0,93,30.14,8.0,NNW,4.6,-,N/A,,Clear,340,2013-02-15 12:56:00
7:56 AM,46.4,42.8,87,30.16,10.0,NNW,3.5,-,N/A,,Partly Cloudy,340,2013-02-15 13:56:00
8:56 AM,53.6,42.8,67,30.17,10.0,North,3.5,-,N/A,,Partly Cloudy,10,2013-02-15 14:56:00
9:56 AM,57.9,37.9,47,30.17,10.0,NNE,6.9,-,N/A,,Clear,20,2013-02-15 15:56:00
10:56 AM,61.0,37.9,42,30.16,10.0,Variable,5.8,-,N/A,,Clear,0,2013-02-15 16:56:00
11:56 AM,62.1,37.9,41,30.12,10.0,NE,6.9,-,N/A,,Partly Cloudy,40,2013-02-15 17:56:00
12:56 PM,62.1,37.0,39,30.09,10.0,SE,10.4,-,N/A,,Scattered Clouds,130,2013-02-15 18:56:00
1:56 PM,61.0,37.9,42,30.07,10.0,South,8.1,-,N/A,,Scattered Clouds,190,2013-02-15 19:56:00
2:56 PM,61.0,37.9,42,30.06,10.0,SW,9.2,-,N/A,,Scattered Clouds,220,2013-02-15 20:56:00
3:56 PM,60.1,39.9,47,30.05,10.0,SSW,11.5,-,N/A,,Scattered Clouds,210,2013-02-15 21:56:00
4:56 PM,57.0,41.0,55,30.05,10.0,WSW,8.1,-,N/A,,Mostly Cloudy,240,2013-02-15 22:56:00
5:56 PM,54.0,43.0,66,30.06,10.0,WSW,4.6,-,N/A,,Mostly Cloudy,250,2013-02-15 23:56:00
6:56 PM,53.1,43.0,69,30.07,10.0,West,5.8,-,N/A,,Mostly Cloudy,260,2013-02-16 00:56:00
7:56 PM,52.0,43.0,71,30.08,10.0,West,4.6,-,N/A,,Scattered Clouds,270,2013-02-16 01:56:00
8:56 PM,52.0,43.0,71,30.09,10.0,West,3.5,-,N/A,,Mostly Cloudy,280,2013-02-16 02:56:00
9:56 PM,50.0,43.0,77,30.09,10.0,WNW,3.5,-,N/A,,Clear,290,2013-02-16 03:56:00
10:56 PM,48.9,44.1,83,30.09,10.0,WNW,4.6,-,N/A,,Clear,290,2013-02-16 04:56:00
11:56 PM,50.0,44.1,80,30.08,10.0,NW,5.8,-,N/A,,Clear,310,2013-02-16 05:56:00